Weather History for Kimball, NE

Change the Weather History Date:

Saturday, December 7, 2013

  Actual Average (KSNY) Record (KSNY)
Temperature  
Mean Temperature 2 °F 29 °F  
Max Temperature 9 °F 42 °F 70 °F (1984)
Min Temperature -5 °F 17 °F -16 °F (2005)
Degree Days  
Heating Degree Days 63 36  
Month to date heating degree days 244  
Since 1 July heating degree days 1666  
Cooling Degree Days 0 0  
Month to date cooling degree days 0  
Year to date cooling degree days 830  
Moisture  
Dew Point -2 °F    
Average Humidity 78    
Maximum Humidity 82    
Minimum Humidity 74    
Precipitation  
Precipitation 0.00 in 0.02 in 0.68 in (1994)
Month to date precipitation 0.14  
Year to date precipitation 18.14  
Sea Level Pressure  
Sea Level Pressure 29.98 in    
Wind  
Wind Speed 11 mph (SSE)    
Max Wind Speed 24 mph    
Max Gust Speed 28 mph    
Visibility 7 miles    
Events Snow    
T = Trace of Precipitation, MM = Missing Value Source: NWS Daily Summary

Daily Weather History Graph

Daily Weather History Graph

Search for Another Location

Airport:

Trip Planner

Search our weather history database for the weather conditions in past years. The results will help you decide how hot, cold, wet, or windy it might be!

Date:

Astronomy

Dec. 07, 2013 Rise Set
Actual Time 8:06 AM CST 5:25 PM CST
Civil Twilight 7:35 AM CST 5:56 PM CST
Nautical Twilight 7:01 AM CST 6:31 PM CST
Astronomical Twilight 6:27 AM CST 7:04 PM CST
Moon 11:51 AM CST (12/7) 11:12 PM CST (12/7)
Length of Visible Light 10h 20m
Length of Day
9h 18m
Waxing Crescent, 29% of the Moon is Illuminated
Dec 7
Waxing Crescent
Dec 9
First Quarter
Dec 17
Full
Dec 25
Last Quarter
Jan 1
New

Hourly Weather History & Observations

Time (CST) Temp. Windchill Dew Point Humidity Pressure Visibility Wind Dir Wind Speed Gust Speed Precip Events Conditions
12:15 AM -1.1 °F -16.6 °F -5.8 °F 81% 30.18 in 4.0 mi SSE 9.2 mph - N/A Snow Light Snow
12:35 AM -0.4 °F -14.7 °F -5.1 °F 81% 30.17 in 10.0 mi SSE 8.1 mph - N/A   Clear
12:55 AM -2.9 °F -17.7 °F -8.0 °F 79% 30.17 in 7.0 mi SSE 8.1 mph - N/A   Clear
1:15 AM -2.4 °F -17.1 °F -7.6 °F 78% 30.15 in 10.0 mi SSE 8.1 mph - N/A   Clear
1:35 AM -2.6 °F -16.0 °F -7.6 °F 79% 30.15 in 10.0 mi South 6.9 mph - N/A   Clear
1:55 AM -3.6 °F -18.6 °F -8.7 °F 79% 30.15 in 10.0 mi South 8.1 mph - N/A   Clear
2:15 AM -2.9 °F -17.7 °F -7.8 °F 80% 30.14 in 10.0 mi South 8.1 mph - N/A   Clear
2:35 AM -3.6 °F -18.6 °F -8.9 °F 78% 30.14 in 10.0 mi South 8.1 mph - N/A   Clear
2:55 AM -4.0 °F -17.8 °F -9.4 °F 78% 30.13 in 10.0 mi South 6.9 mph - N/A   Clear
3:15 AM -3.8 °F -18.8 °F -9.0 °F 78% 30.12 in 10.0 mi SSE 8.1 mph - N/A   Clear
3:35 AM -3.1 °F -17.9 °F -7.8 °F 80% 30.13 in 10.0 mi South 8.1 mph - N/A   Scattered Clouds
3:50 AM -2.4 °F -17.1 °F -7.8 °F 78% 30.12 in 10.0 mi South 8.1 mph - N/A   Scattered Clouds
4:15 AM -4.0 °F -12.4 °F -9.4 °F 78% 30.13 in 10.0 mi South 3.5 mph - N/A   Clear
4:35 AM -5.4 °F -16.2 °F -10.8 °F 77% 30.13 in 10.0 mi South 4.6 mph - N/A   Scattered Clouds
4:55 AM -2.9 °F -15.0 °F -7.8 °F 80% 30.11 in 7.0 mi SSW 5.8 mph - N/A   Overcast
5:15 AM -1.7 °F -13.5 °F -6.7 °F 79% 30.11 in 10.0 mi South 5.8 mph - N/A   Mostly Cloudy
5:35 AM -2.2 °F -10.4 °F -7.6 °F 78% 30.11 in 10.0 mi SSW 3.5 mph - N/A   Scattered Clouds
5:55 AM -2.7 °F -14.8 °F -8.0 °F 78% 30.10 in 10.0 mi SSE 5.8 mph - N/A   Clear
6:15 AM -3.1 °F -13.5 °F -8.5 °F 78% 30.10 in 10.0 mi South 4.6 mph - N/A   Clear
6:35 AM -2.2 °F -16.8 °F -7.2 °F 79% 30.09 in 10.0 mi South 8.1 mph - N/A   Clear
6:55 AM -0.0 °F -11.6 °F -5.1 °F 79% 30.09 in 10.0 mi South 5.8 mph - N/A   Scattered Clouds
7:15 AM 1.4 °F -16.1 °F -3.6 °F 79% 30.09 in 10.0 mi South 12.7 mph - N/A   Scattered Clouds
7:35 AM 2.3 °F -12.4 °F -2.7 °F 79% 30.08 in 10.0 mi South 9.2 mph - N/A   Scattered Clouds
7:55 AM 2.3 °F -11.4 °F -2.7 °F 79% 30.08 in 10.0 mi South 8.1 mph - N/A   Clear
8:15 AM 1.8 °F -13.1 °F -3.3 °F 79% 30.07 in 10.0 mi SSE 9.2 mph - N/A   Clear
8:35 AM 2.3 °F -14.2 °F -2.2 °F 81% 30.07 in 10.0 mi South 11.5 mph - N/A   Scattered Clouds
8:55 AM 3.7 °F -12.4 °F -1.1 °F 80% 30.07 in 10.0 mi SSE 11.5 mph - N/A   Mostly Cloudy
9:15 AM 4.5 °F -11.5 °F -0.2 °F 81% 30.07 in 10.0 mi SSE 11.5 mph - N/A   Scattered Clouds
9:35 AM 5.4 °F -12.5 °F 0.7 °F 81% 30.06 in 10.0 mi SSE 15.0 mph - N/A   Scattered Clouds
9:55 AM 5.9 °F -11.8 °F 1.6 °F 82% 30.06 in 10.0 mi SSE 15.0 mph 20.7 mph N/A   Mostly Cloudy
10:15 AM 6.8 °F -11.3 °F 2.3 °F 82% 30.06 in 7.0 mi SSE 16.1 mph 24.2 mph N/A   Overcast
10:35 AM 7.2 °F -12.4 °F 2.5 °F 81% 30.06 in 4.0 mi SSE 19.6 mph - N/A   Haze
10:55 AM 7.3 °F -11.1 °F 2.7 °F 81% 30.05 in 3.0 mi SSE 17.3 mph 23.0 mph N/A   Overcast
11:15 AM 7.3 °F -12.2 °F 2.3 °F 80% 30.04 in 2.5 mi SSE 19.6 mph - N/A   Haze
11:35 AM 7.5 °F -13.3 °F 2.7 °F 81% 30.03 in 2.5 mi SSE 23.0 mph - N/A   Haze
11:55 AM 7.7 °F -12.2 °F 2.7 °F 80% 30.01 in 2.5 mi SSE 20.7 mph 27.6 mph N/A   Haze
12:15 PM 7.7 °F -11.7 °F 2.5 °F 79% 30.01 in 3.0 mi SSE 19.6 mph 25.3 mph N/A   Haze
12:35 PM 7.7 °F -12.2 °F 2.3 °F 79% 29.98 in 3.0 mi South 20.7 mph 26.5 mph N/A   Haze
12:55 PM 8.2 °F -11.5 °F 2.8 °F 79% 29.96 in 2.0 mi SSE 20.7 mph 24.2 mph N/A   Haze
1:15 PM 8.8 °F -10.3 °F 2.7 °F 76% 29.95 in 2.0 mi SSE 19.6 mph 23.0 mph N/A   Haze
1:35 PM 9.0 °F -10.5 °F 2.5 °F 75% 29.94 in 2.5 mi SSE 20.7 mph - N/A   Haze
1:55 PM 9.3 °F -11.3 °F 3.0 °F 76% 29.92 in 2.5 mi South 24.2 mph - N/A   Haze
2:15 PM 8.6 °F -11.0 °F 2.5 °F 76% 29.91 in 3.0 mi SSE 20.7 mph - N/A   Haze
2:35 PM 8.8 °F -9.3 °F 2.7 °F 76% 29.90 in 3.0 mi SSE 17.3 mph 25.3 mph N/A   Haze
2:55 PM 9.1 °F -9.3 °F 2.7 °F 75% 29.88 in 4.0 mi SSE 18.4 mph 25.3 mph N/A   Haze
3:15 PM 8.8 °F -9.8 °F 2.1 °F 74% 29.87 in 4.0 mi SSE 18.4 mph 21.9 mph N/A   Haze
3:35 PM 8.2 °F -11.0 °F 1.4 °F 74% 29.87 in 7.0 mi SSE 19.6 mph - N/A   Overcast
3:55 PM 8.2 °F -10.5 °F 1.6 °F 74% 29.87 in 7.0 mi SSE 18.4 mph - N/A   Overcast
4:15 PM 8.1 °F -10.2 °F 1.6 °F 75% 29.87 in 5.0 mi SSE 17.3 mph 23.0 mph N/A   Haze
4:35 PM 7.7 °F -8.9 °F 1.4 °F 75% 29.86 in 5.0 mi SSE 13.8 mph 21.9 mph N/A   Haze
4:55 PM 7.3 °F -10.0 °F 1.0 °F 75% 29.87 in 7.0 mi SSE 15.0 mph - N/A   Overcast
5:15 PM 7.0 °F -10.4 °F 1.2 °F 77% 29.87 in 5.0 mi SSE 15.0 mph - N/A   Haze
5:35 PM 6.8 °F -10.0 °F 1.2 °F 78% 29.86 in 5.0 mi SE 13.8 mph - N/A   Haze
5:55 PM 6.8 °F -10.0 °F 1.4 °F 79% 29.86 in 7.0 mi SE 13.8 mph - N/A   Overcast
6:15 PM 6.8 °F -8.6 °F 1.2 °F 78% 29.85 in 7.0 mi SE 11.5 mph - N/A   Overcast
6:35 PM 6.4 °F -9.0 °F 1.4 °F 80% 29.85 in 7.0 mi SE 11.5 mph - N/A   Overcast
6:55 PM 6.3 °F -11.3 °F 1.2 °F 80% 29.85 in 5.0 mi SE 15.0 mph - N/A   Haze
7:15 PM 6.1 °F -10.9 °F 0.9 °F 79% 29.84 in 7.0 mi SE 13.8 mph - N/A   Overcast
7:35 PM 5.9 °F -12.4 °F 0.5 °F 78% 29.85 in 7.0 mi SE 16.1 mph - N/A   Overcast
7:55 PM 5.9 °F -13.0 °F 0.9 °F 80% 29.84 in 5.0 mi SE 17.3 mph - N/A Snow Light Snow
8:15 PM 5.7 °F -13.2 °F 0.5 °F 79% 29.84 in 5.0 mi SE 17.3 mph - N/A   Haze
8:35 PM 5.5 °F -14.0 °F 0.1 °F 78% 29.83 in 5.0 mi SE 18.4 mph - N/A   Haze
8:55 PM 5.0 °F -14.2 °F -0.4 °F 78% 29.83 in 7.0 mi SE 17.3 mph - N/A   Overcast
9:15 PM 5.0 °F -13.0 °F -0.2 °F 79% 29.83 in 5.0 mi SE 15.0 mph - N/A Snow Light Snow
9:35 PM 4.8 °F -13.2 °F -0.6 °F 78% 29.83 in 5.0 mi SSE 15.0 mph 20.7 mph N/A   Haze
9:55 PM 4.6 °F -14.0 °F -0.6 °F 79% 29.81 in 5.0 mi SE 16.1 mph - N/A   Haze
10:15 PM 4.6 °F -13.4 °F -0.6 °F 79% 29.81 in 4.0 mi SSE 15.0 mph - N/A Snow Light Snow
10:35 PM 4.5 °F -14.3 °F -0.8 °F 79% 29.81 in 5.0 mi SSE 16.1 mph - N/A Snow Light Snow
10:55 PM 4.5 °F -12.3 °F -0.9 °F 78% 29.80 in 7.0 mi SSE 12.7 mph - N/A   Overcast
11:15 PM 3.9 °F -13.7 °F -1.3 °F 79% 29.79 in 7.0 mi SE 13.8 mph - N/A   Overcast
11:35 PM 4.1 °F -14.1 °F -1.3 °F 78% 29.79 in 7.0 mi SE 15.0 mph - N/A   Overcast
11:55 PM 3.7 °F -14.6 °F -1.5 °F 79% 29.78 in 7.0 mi SE 15.0 mph - N/A   Overcast